Location: Campolattaro
(41.2833°N, 14.7333°E)
Time: 00:30:44
(UTC+00:00)

Timation 1 Rocket - Pass Details

Date: 19 May 2025
Orbit: 895 x 909 km, 70.0° (Epoch: 15 June)

Event Time Altitude Azimuth Distance (km) Brightness Sun altitude
Exits shadow 21:47:15 50° 230° (SW) 1,131 4.6 -26.6°
Maximum altitude 21:48:48 72° 296° (WNW) 946 4.4 -26.7°
Drops below altitude 10° 21:54:47 10° 22° (NNE) 2,591 7.4 -27.0°
Sets 21:57:19 0° 24° (NNE) 3,538 8.1 -27.2°
